,,,PA_Meas_PMT16A,,PR_Meas_QMR101_102,,RH_Meas_QMH101,,SR_Meas_QMS101,,TA_Meas_QMH101,,GenWind,,GenWind,
date,time,status,PA,status,PR,status,RH,status,SR,status,TA,status,DirAvg,status,SpdAvg,
2011-05-25, 00:00:04,VALID,1003.99,VALID,0,INVALID,163.662,VALID,0,VALID,24.8697,VALID,19,VALID,0.647656,
2011-05-25, 00:01:04,VALID,1003.92,VALID,0,INVALID,163.678,VALID,0.100563,VALID,24.8308,VALID,20,VALID,0.789063,
2011-05-25, 00:02:04,VALID,1003.95,VALID,0,INVALID,163.67,VALID,0,VALID,24.8113,VALID,25,VALID,0.373437,
2011-05-25, 00:03:04,VALID,1003.94,VALID,0,INVALID,163.67,VALID,0.100563,VALID,24.8308,VALID,46,VALID,0.51875,
2011-05-25, 00:04:04,VALID,1003.95,VALID,0,INVALID,163.655,VALID,0,VALID,24.7919,VALID,29,VALID,0.569141,
2011-05-25, 00:05:04,VALID,1003.92,VALID,0,INVALID,163.685,VALID,0.100563,VALID,24.8113,VALID,23,VALID,0.321094,
2011-05-25, 00:06:04,VALID,1003.9,VALID,0,INVALID,163.693,VALID,0,VALID,24.8113,VALID,23,VALID,0.407422,
2011-05-25, 00:07:04,VALID,1003.89,VALID,0,INVALID,163.655,VALID,0,VALID,24.8113,VALID,23,VALID,0.153125,
2011-05-25, 00:08:04,VALID,1003.9,VALID,0,INVALID,163.693,VALID,0,VALID,24.7919,VALID,21,VALID,0.621875,
2011-05-25, 00:09:04,VALID,1003.91,VALID,0,INVALID,163.678,VALID,0,VALID,24.7919,VALID,21,VALID,0.202344,
2011-05-25, 00:10:04,VALID,1003.88,VALID,0,INVALID,163.662,VALID,0,VALID,24.7937,VALID,21,VALID,0.495313,
2011-05-25, 00:11:04,VALID,1003.87,VALID,0,INVALID,163.693,VALID,0.100563,VALID,24.8113,VALID,29,VALID,0.522656,
2011-05-25, 00:12:04,VALID,1003.88,VALID,0,INVALID,163.708,VALID,0.100563,VALID,24.7724,VALID,27,VALID,0.464453,
2011-05-25, 00:13:04,VALID,1003.85,VALID,0,INVALID,163.67,VALID,0,VALID,24.7937,VALID,27,VALID,0.448438,
2011-05-25, 00:14:04,VALID,1003.85,VALID,0,INVALID,163.678,VALID,0,VALID,24.7316,VALID,27,VALID,0.221875,
2011-05-25, 00:15:04,VALID,1003.83,VALID,0,INVALID,163.693,VALID,0,VALID,24.7529,VALID,27,VALID,0.186328,
2011-05-25, 00:16:04,VALID,1003.81,VALID,0,INVALID,163.67,VALID,0,VALID,24.7548,VALID,27,VALID,0.0347656,
2011-05-25, 00:17:04,VALID,1003.8,VALID,0,INVALID,163.662,VALID,0,VALID,24.714,VALID,24,VALID,0.418359,
2011-05-25, 00:18:04,VALID,1003.77,VALID,0,INVALID,163.693,VALID,0,VALID,24.714,VALID,24,VALID,0.194141,
2011-05-25, 00:19:04,VALID,1003.77,VALID,0,INVALID,163.693,VALID,0,VALID,24.714,VALID,24,VALID,0.00898437,
2011-05-25, 00:20:04,VALID,1003.73,VALID,0,INVALID,163.693,VALID,0,VALID,24.6945,VALID,23,VALID,0.205859,
2011-05-25, 00:21:04,VALID,1003.74,VALID,0,INVALID,163.678,VALID,0.100563,VALID,24.6945,VALID,23,VALID,0,
2011-05-25, 00:22:04,VALID,1003.74,VALID,0,INVALID,163.701,VALID,0,VALID,24.6732,VALID,23,VALID,0.210547,
2011-05-25, 00:23:04,VALID,1003.74,VALID,0,INVALID,163.708,VALID,0,VALID,24.675,VALID,23,VALID,0.302344,
2011-05-25, 00:24:04,VALID,1003.74,VALID,0,INVALID,163.701,VALID,0.100563,VALID,24.6537,VALID,5,VALID,0.469141,
2011-05-25, 00:25:04,VALID,1003.71,VALID,0,INVALID,163.708,VALID,0.100563,VALID,24.6556,VALID,5,VALID,0.234766,
2011-05-25, 00:26:04,VALID,1003.69,VALID,0,INVALID,163.685,VALID,0.100563,VALID,24.6361,VALID,5,VALID,0.210156,
2011-05-25, 00:27:04,VALID,1003.66,VALID,0,INVALID,163.693,VALID,0.100563,VALID,24.5972,VALID,5,VALID,0.322656,
2011-05-25, 00:28:04,VALID,1003.63,VALID,0,INVALID,163.685,VALID,0.100563,VALID,24.5972,VALID,5,VALID,0.312109,
2011-05-25, 00:29:04,VALID,1003.63,VALID,0,INVALID,163.693,VALID,0,VALID,24.5777,VALID,5,VALID,0.217969,
2011-05-25, 00:30:04,VALID,1003.61,VALID,0,INVALID,163.685,VALID,0,VALID,24.5582,VALID,5,VALID,0.207031,
2011-05-25, 00:31:04,VALID,1003.62,VALID,0,INVALID,163.701,VALID,0,VALID,24.5582,VALID,5,VALID,0.257813,
2011-05-25, 00:32:04,VALID,1003.58,VALID,0,INVALID,163.693,VALID,0,VALID,24.5193,VALID,5,VALID,0,
2011-05-25, 00:33:04,VALID,1003.61,VALID,0,INVALID,163.716,VALID,0,VALID,24.4998,VALID,5,VALID,0.0351563,
2011-05-25, 00:34:04,VALID,1003.6,VALID,0,INVALID,163.693,VALID,0,VALID,24.4998,VALID,5,VALID,0,
2011-05-25, 00:35:04,VALID,1003.62,VALID,0,INVALID,163.685,VALID,0,VALID,24.4998,VALID,5,VALID,0,
2011-05-25, 00:36:04,VALID,1003.61,VALID,0,INVALID,163.716,VALID,0,VALID,24.4804,VALID,5,VALID,0,
2011-05-25, 00:37:04,VALID,1003.64,VALID,0,INVALID,163.708,VALID,0.100563,VALID,24.4804,VALID,5,VALID,0,
2011-05-25, 00:38:04,VALID,1003.63,VALID,0,INVALID,163.708,VALID,0,VALID,24.4609,VALID,5,VALID,0,
2011-05-25, 00:39:04,VALID,1003.63,VALID,0,INVALID,163.708,VALID,0.100563,VALID,24.4414,VALID,5,VALID,0,
2011-05-25, 00:40:04,VALID,1003.66,VALID,0,INVALID,163.701,VALID,0,VALID,24.422,VALID,5,VALID,0,
2011-05-25, 00:41:04,VALID,1003.66,VALID,0,INVALID,163.723,VALID,0.100563,VALID,24.4025,VALID,5,VALID,0,
2011-05-25, 00:42:04,VALID,1003.67,VALID,0,INVALID,163.739,VALID,0,VALID,24.4025,VALID,5,VALID,0.183594,
2011-05-25, 00:43:04,VALID,1003.66,VALID,0,INVALID,163.708,VALID,0,VALID,24.3812,VALID,5,VALID,0.171484,
2011-05-25, 00:44:04,VALID,1003.65,VALID,0,INVALID,163.716,VALID,0,VALID,24.4025,VALID,5,VALID,0.255078,
2011-05-25, 00:45:04,VALID,1003.63,VALID,0,INVALID,163.701,VALID,0,VALID,24.4025,VALID,5,VALID,0,
2011-05-25, 00:46:04,VALID,1003.61,VALID,0,INVALID,163.731,VALID,0,VALID,24.4025,VALID,5,VALID,0,
2011-05-25, 00:47:04,VALID,1003.65,VALID,0,INVALID,163.708,VALID,0,VALID,24.3636,VALID,5,VALID,0,
2011-05-25, 00:48:04,VALID,1003.65,VALID,0,INVALID,163.723,VALID,0,VALID,24.383,VALID,27,VALID,0.110937,
2011-05-25, 00:49:04,VALID,1003.64,VALID,0,INVALID,163.701,VALID,0.100563,VALID,24.3617,VALID,27,VALID,0.0949219,
2011-05-25, 00:50:04,VALID,1003.65,VALID,0,INVALID,163.731,VALID,0,VALID,24.383,VALID,27,VALID,0.05625,
2011-05-25, 00:51:04,VALID,1003.63,VALID,0,INVALID,163.701,VALID,0,VALID,24.3849,VALID,27,VALID,0.239453,
2011-05-25, 00:52:04,VALID,1003.62,VALID,0,INVALID,163.731,VALID,0.100563,VALID,24.3636,VALID,27,VALID,0.299219,
2011-05-25, 00:53:04,VALID,1003.6,VALID,0,INVALID,163.708,VALID,0,VALID,24.3441,VALID,27,VALID,0.0722656,
2011-05-25, 00:54:04,VALID,1003.61,VALID,0,INVALID,163.716,VALID,0.100563,VALID,24.3636,VALID,27,VALID,0.229297,
2011-05-25, 00:55:04,VALID,1003.62,VALID,0,INVALID,163.701,VALID,0.100563,VALID,24.3441,VALID,77,VALID,0.529297,
2011-05-25, 00:56:04,VALID,1003.62,VALID,0,INVALID,163.731,VALID,0.100563,VALID,24.3033,VALID,83,VALID,0.394531,
2011-05-25, 00:57:04,VALID,1003.61,VALID,0,INVALID,163.731,VALID,0,VALID,24.3033,VALID,80,VALID,0.426953,
2011-05-25, 00:58:04,VALID,1003.6,VALID,0,INVALID,163.723,VALID,0.100563,VALID,24.3052,VALID,80,VALID,0.180859,
2011-05-25, 00:59:04,VALID,1003.6,VALID,0,INVALID,163.731,VALID,0,VALID,24.2875,VALID,80,VALID,0.0164062,
2011-05-25, 01:00:04,VALID,1003.59,VALID,0,INVALID,163.708,VALID,0,VALID,24.2681,VALID,80,VALID,0.142578,
2011-05-25, 01:01:04,VALID,1003.59,VALID,0,INVALID,163.731,VALID,0,VALID,24.2273,VALID,80,VALID,0.326172,
2011-05-25, 01:02:04,VALID,1003.6,VALID,0,INVALID,163.708,VALID,0,VALID,24.2486,VALID,80,VALID,0.250391,
2011-05-25, 01:03:04,VALID,1003.62,VALID,0,INVALID,163.701,VALID,0,VALID,24.2486,VALID,80,VALID,0.00585938,
2011-05-25, 01:04:04,VALID,1003.63,VALID,0,INVALID,163.731,VALID,0,VALID,24.2078,VALID,80,VALID,0.15,
2011-05-25, 01:05:04,VALID,1003.63,VALID,0,INVALID,163.739,VALID,0,VALID,24.2078,VALID,80,VALID,0.224219,
2011-05-25, 01:06:04,VALID,1003.57,VALID,0,INVALID,163.746,VALID,0,VALID,24.2291,VALID,80,VALID,0.000390625,
2011-05-25, 01:07:04,VALID,1003.61,VALID,0,INVALID,163.716,VALID,0,VALID,24.2097,VALID,80,VALID,0.228125,
2011-05-25, 01:08:04,VALID,1003.57,VALID,0,INVALID,163.746,VALID,0,VALID,24.1689,VALID,80,VALID,0.00273437,
2011-05-25, 01:09:04,VALID,1003.58,VALID,0,INVALID,163.701,VALID,0,VALID,24.2097,VALID,80,VALID,0.101172,
2011-05-25, 01:10:04,VALID,1003.54,VALID,0,INVALID,163.723,VALID,0,VALID,24.2097,VALID,80,VALID,0.306641,
2011-05-25, 01:11:04,VALID,1003.53,VALID,0,INVALID,163.739,VALID,0,VALID,24.1902,VALID,80,VALID,0.372656,
2011-05-25, 01:12:04,VALID,1003.5,VALID,0,INVALID,163.723,VALID,0,VALID,24.2097,VALID,80,VALID,0.136328,
2011-05-25, 01:13:04,VALID,1003.48,VALID,0,INVALID,163.701,VALID,0,VALID,24.1689,VALID,80,VALID,0.221094,
2011-05-25, 01:14:04,VALID,1003.47,VALID,0,INVALID,163.739,VALID,0,VALID,24.1884,VALID,80,VALID,0.358984,
2011-05-25, 01:15:04,VALID,1003.44,VALID,0,INVALID,163.746,VALID,0,VALID,24.1671,VALID,80,VALID,0.0433594,
2011-05-25, 01:16:04,VALID,1003.42,VALID,0,INVALID,163.739,VALID,0.100563,VALID,24.1689,VALID,80,VALID,0,
2011-05-25, 01:17:04,VALID,1003.41,VALID,0,INVALID,163.723,VALID,0,VALID,24.1689,VALID,80,VALID,0.189453,
2011-05-25, 01:18:04,VALID,1003.39,VALID,0,INVALID,163.716,VALID,0,VALID,24.1494,VALID,80,VALID,0.109766,
2011-05-25, 01:19:04,VALID,1003.41,VALID,0,INVALID,163.731,VALID,0,VALID,24.1494,VALID,80,VALID,0.200781,
2011-05-25, 01:20:04,VALID,1003.41,VALID,0,INVALID,163.723,VALID,0,VALID,24.1494,VALID,80,VALID,0.0234375,
2011-05-25, 01:21:04,VALID,1003.36,VALID,0,INVALID,163.723,VALID,0.100563,VALID,24.1494,VALID,80,VALID,0.0574219,
2011-05-25, 01:22:04,VALID,1003.39,VALID,0,INVALID,163.716,VALID,0.100563,VALID,24.13,VALID,80,VALID,0.173047,
2011-05-25, 01:23:04,VALID,1003.36,VALID,0,INVALID,163.739,VALID,0.100563,VALID,24.1087,VALID,80,VALID,0.0921875,
2011-05-25, 01:24:04,VALID,1003.37,VALID,0,INVALID,163.739,VALID,0.100563,VALID,24.0892,VALID,80,VALID,0.405469,
2011-05-25, 01:25:04,VALID,1003.34,VALID,0,INVALID,163.754,VALID,0,VALID,24.091,VALID,80,VALID,0.319922,
2011-05-25, 01:26:04,VALID,1003.33,VALID,0,INVALID,163.723,VALID,0.100563,VALID,24.0697,VALID,70,VALID,0.308203,
2011-05-25, 01:27:04,VALID,1003.34,VALID,0,INVALID,163.739,VALID,0.100563,VALID,24.0503,VALID,52,VALID,0.145703,
2011-05-25, 01:28:04,VALID,1003.3,VALID,0,INVALID,163.723,VALID,0.100563,VALID,24.0503,VALID,52,VALID,0.117969,
2011-05-25, 01:29:04,VALID,1003.25,VALID,0,INVALID,163.739,VALID,0,VALID,24.0539,VALID,52,VALID,0.201562,
2011-05-25, 01:30:04,VALID,1003.28,VALID,0,INVALID,163.746,VALID,0,VALID,24.0539,VALID,52,VALID,0.0953125,
2011-05-25, 01:31:04,VALID,1003.25,VALID,0,INVALID,163.723,VALID,0,VALID,24.0326,VALID,52,VALID,0,
2011-05-25, 01:32:04,VALID,1003.23,VALID,0,INVALID,163.739,VALID,0,VALID,24.0132,VALID,52,VALID,0,
2011-05-25, 01:33:04,VALID,1003.23,VALID,0,INVALID,163.731,VALID,0,VALID,24.0132,VALID,52,VALID,0,
2011-05-25, 01:34:04,VALID,1003.22,VALID,0,INVALID,163.739,VALID,0,VALID,24.0557,VALID,52,VALID,0,
2011-05-25, 01:35:04,VALID,1003.2,VALID,0,INVALID,163.739,VALID,0,VALID,24.0345,VALID,52,VALID,0,
2011-05-25, 01:36:04,VALID,1003.2,VALID,0,INVALID,163.739,VALID,0,VALID,23.9937,VALID,52,VALID,0.0992187,
2011-05-25, 01:37:04,VALID,1003.18,VALID,0,INVALID,163.731,VALID,0,VALID,23.9955,VALID,52,VALID,0.144141,
2011-05-25, 01:38:04,VALID,1003.17,VALID,0,INVALID,163.731,VALID,0,VALID,23.9742,VALID,52,VALID,0.0925781,
2011-05-25, 01:39:04,VALID,1003.18,VALID,0,INVALID,163.731,VALID,0,VALID,23.9761,VALID,52,VALID,0.261328,
2011-05-25, 01:40:04,VALID,1003.2,VALID,0,INVALID,163.739,VALID,0,VALID,23.9548,VALID,52,VALID,0.251172,
2011-05-25, 01:41:04,VALID,1003.2,VALID,0,INVALID,163.754,VALID,0,VALID,23.9353,VALID,52,VALID,0.0253906,
2011-05-25, 01:42:04,VALID,1003.17,VALID,0,INVALID,163.739,VALID,0,VALID,23.9353,VALID,52,VALID,0.0839844,
2011-05-25, 01:43:04,VALID,1003.17,VALID,0,INVALID,163.769,VALID,0,VALID,23.9566,VALID,52,VALID,0.0375,
2011-05-25, 01:44:04,VALID,1003.13,VALID,0,INVALID,163.739,VALID,0,VALID,23.9761,VALID,59,VALID,0.353516,
2011-05-25, 01:45:04,VALID,1003.1,VALID,0,INVALID,163.739,VALID,0,VALID,23.9548,VALID,59,VALID,0.0640625,
2011-05-25, 01:46:04,VALID,1003.12,VALID,0,INVALID,163.762,VALID,0,VALID,23.9955,VALID,59,VALID,0.449609,
2011-05-25, 01:47:04,VALID,1003.08,VALID,0,INVALID,163.739,VALID,0,VALID,23.9955,VALID,59,VALID,0.185937,
2011-05-25, 01:48:04,VALID,1003.1,VALID,0,INVALID,163.723,VALID,0,VALID,23.9761,VALID,59,VALID,0,
2011-05-25, 01:49:04,VALID,1003.07,VALID,0,INVALID,163.746,VALID,0,VALID,23.9548,VALID,59,VALID,0.0597656,
2011-05-25, 01:50:04,VALID,1003.07,VALID,0,INVALID,163.739,VALID,0,VALID,23.9566,VALID,59,VALID,0.0347656,
2011-05-25, 01:51:04,VALID,1003.04,VALID,0,INVALID,163.746,VALID,0,VALID,23.9566,VALID,59,VALID,0.180469,
2011-05-25, 01:52:04,VALID,1003.02,VALID,0,INVALID,163.708,VALID,0,VALID,23.9371,VALID,61,VALID,0.345703,
2011-05-25, 01:53:04,VALID,1003.02,VALID,0,INVALID,163.731,VALID,0,VALID,23.9584,VALID,64,VALID,0.155469,
2011-05-25, 01:54:04,VALID,1002.99,VALID,0,INVALID,163.731,VALID,0,VALID,23.9371,VALID,64,VALID,0.150391,
2011-05-25, 01:55:04,VALID,1002.98,VALID,0,INVALID,163.769,VALID,0,VALID,23.9371,VALID,64,VALID,0.203125,
2011-05-25, 01:56:04,VALID,1002.96,VALID,0,INVALID,163.754,VALID,0,VALID,23.9566,VALID,64,VALID,0.191406,
2011-05-25, 01:57:04,VALID,1002.96,VALID,0,INVALID,163.754,VALID,0,VALID,23.9566,VALID,64,VALID,0.189063,
2011-05-25, 01:58:04,VALID,1002.9,VALID,0,INVALID,163.762,VALID,0,VALID,23.9761,VALID,64,VALID,0.162891,
2011-05-25, 01:59:04,VALID,1002.91,VALID,0,INVALID,163.746,VALID,0,VALID,23.9761,VALID,38,VALID,0.733594,
2011-05-25, 02:00:04,VALID,1002.88,VALID,0,INVALID,163.769,VALID,0,VALID,23.9742,VALID,38,VALID,0.566016,
2011-05-25, 02:01:04,VALID,1002.85,VALID,0,INVALID,163.723,VALID,0,VALID,23.9353,VALID,38,VALID,0.583984,
2011-05-25, 02:02:04,VALID,1002.84,VALID,0,INVALID,163.746,VALID,0.100563,VALID,23.9353,VALID,38,VALID,0.357422,
2011-05-25, 02:03:04,VALID,1002.81,VALID,0,INVALID,163.769,VALID,0,VALID,23.9353,VALID,38,VALID,0.295703,
2011-05-25, 02:04:04,VALID,1002.79,VALID,0,INVALID,163.769,VALID,0.100563,VALID,23.8946,VALID,38,VALID,0.320703,
2011-05-25, 02:05:04,VALID,1002.75,VALID,0,INVALID,163.739,VALID,0.100563,VALID,23.8751,VALID,38,VALID,0.475391,
2011-05-25, 02:06:04,VALID,1002.76,VALID,0,INVALID,163.739,VALID,0.100563,VALID,23.8964,VALID,38,VALID,0.341016,
2011-05-25, 02:07:04,VALID,1002.72,VALID,0,INVALID,163.723,VALID,0.100563,VALID,23.8751,VALID,309,VALID,0.306641,
2011-05-25, 02:08:04,VALID,1002.67,VALID,0,INVALID,163.746,VALID,0.100563,VALID,23.914,VALID,312,VALID,0.471875,
2011-05-25, 02:09:04,VALID,1002.68,VALID,0,INVALID,163.754,VALID,0.100563,VALID,23.9353,VALID,353,VALID,0.521094,
2011-05-25, 02:10:04,VALID,1002.66,VALID,0,INVALID,163.754,VALID,0.100563,VALID,23.9335,VALID,353,VALID,0.647656,
2011-05-25, 02:11:04,VALID,1002.67,VALID,0,INVALID,163.723,VALID,0.100563,VALID,23.9742,VALID,353,VALID,0.51875,
2011-05-25, 02:12:04,VALID,1002.66,VALID,0,INVALID,163.723,VALID,0.100563,VALID,23.9548,VALID,353,VALID,0.449219,
2011-05-25, 02:13:04,VALID,1002.62,VALID,0,INVALID,163.754,VALID,0.100563,VALID,23.914,VALID,353,VALID,0.36875,
2011-05-25, 02:14:04,VALID,1002.59,VALID,0,INVALID,163.731,VALID,0,VALID,23.9177,VALID,353,VALID,0.353125,
2011-05-25, 02:15:04,VALID,1002.6,VALID,0,INVALID,163.739,VALID,0,VALID,23.9159,VALID,353,VALID,0.339063,
2011-05-25, 02:16:04,VALID,1002.6,VALID,0,INVALID,163.746,VALID,0,VALID,23.8964,VALID,353,VALID,0.341406,
2011-05-25, 02:17:04,VALID,1002.6,VALID,0,INVALID,163.754,VALID,0,VALID,23.8964,VALID,353,VALID,0.471484,
2011-05-25, 02:18:04,VALID,1002.58,VALID,0,INVALID,163.746,VALID,0,VALID,23.8982,VALID,353,VALID,0.0371094,
2011-05-25, 02:19:04,VALID,1002.57,VALID,0,INVALID,163.754,VALID,0,VALID,23.8593,VALID,353,VALID,0.317969,
2011-05-25, 02:20:04,VALID,1002.57,VALID,0,INVALID,163.762,VALID,0,VALID,23.8185,VALID,353,VALID,0.221094,
2011-05-25, 02:21:04,VALID,1002.57,VALID,0,INVALID,163.754,VALID,0,VALID,23.838,VALID,5,VALID,0.579687,
2011-05-25, 02:22:04,VALID,1002.56,VALID,0,INVALID,163.754,VALID,0,VALID,23.838,VALID,5,VALID,0.374609,
2011-05-25, 02:23:04,VALID,1002.54,VALID,0,INVALID,163.769,VALID,0,VALID,23.8575,VALID,5,VALID,0.078125,
2011-05-25, 02:24:04,VALID,1002.56,VALID,0,INVALID,163.754,VALID,0,VALID,23.8982,VALID,5,VALID,0.116016,
2011-05-25, 02:25:04,VALID,1002.54,VALID,0,INVALID,163.762,VALID,0,VALID,23.8769,VALID,5,VALID,0.276563,
2011-05-25, 02:26:04,VALID,1002.56,VALID,0,INVALID,163.754,VALID,0,VALID,23.9177,VALID,6,VALID,0.263672,
2011-05-25, 02:27:04,VALID,1002.53,VALID,0,INVALID,163.731,VALID,0,VALID,23.9761,VALID,30,VALID,0.565234,
2011-05-25, 02:28:04,VALID,1002.54,VALID,0,INVALID,163.723,VALID,0,VALID,23.9937,VALID,30,VALID,0.401953,
2011-05-25, 02:29:04,VALID,1002.53,VALID,0,INVALID,163.746,VALID,0,VALID,24.0734,VALID,30,VALID,0.850391,
2011-05-25, 02:30:04,VALID,1002.53,VALID,0,INVALID,163.731,VALID,0,VALID,24.1318,VALID,29,VALID,0.519531,
2011-05-25, 02:31:04,VALID,1002.55,VALID,0,INVALID,163.708,VALID,0,VALID,24.1494,VALID,26,VALID,0.669531,
2011-05-25, 02:32:04,VALID,1002.53,VALID,0,INVALID,163.739,VALID,0,VALID,24.2486,VALID,54,VALID,0.317187,
2011-05-25, 02:33:04,VALID,1002.51,VALID,0,INVALID,163.723,VALID,0,VALID,24.2875,VALID,37,VALID,0.578906,
2011-05-25, 02:34:04,VALID,1002.5,VALID,0,INVALID,163.716,VALID,0,VALID,24.3265,VALID,31,VALID,0.342578,
2011-05-25, 02:35:04,VALID,1002.48,VALID,0,INVALID,163.716,VALID,0,VALID,24.3654,VALID,43,VALID,0.429688,
2011-05-25, 02:36:04,VALID,1002.5,VALID,0,INVALID,163.701,VALID,0,VALID,24.3654,VALID,40,VALID,0.608984,
2011-05-25, 02:37:04,VALID,1002.5,VALID,0,INVALID,163.685,VALID,0,VALID,24.4043,VALID,31,VALID,0.559375,
2011-05-25, 02:38:04,VALID,1002.5,VALID,0,INVALID,163.693,VALID,0,VALID,24.4628,VALID,58,VALID,0.530469,
2011-05-25, 02:39:04,VALID,1002.52,VALID,0,INVALID,163.693,VALID,0,VALID,24.4822,VALID,27,VALID,0.720703,
2011-05-25, 02:40:04,VALID,1002.54,VALID,0,INVALID,163.701,VALID,0,VALID,24.5406,VALID,77,VALID,0.710938,
2011-05-25, 02:41:04,VALID,1002.56,VALID,0,INVALID,163.708,VALID,0,VALID,24.5796,VALID,39,VALID,0.558984,
2011-05-25, 02:42:04,VALID,1002.56,VALID,0,INVALID,163.678,VALID,0,VALID,24.5796,VALID,32,VALID,0.567578,
2011-05-25, 02:43:04,VALID,1002.54,VALID,0,INVALID,163.693,VALID,0,VALID,24.5406,VALID,32,VALID,0.647656,
2011-05-25, 02:44:04,VALID,1002.53,VALID,0,INVALID,163.708,VALID,0,VALID,24.5582,VALID,35,VALID,0.514844,
2011-05-25, 02:45:04,VALID,1002.54,VALID,0,INVALID,163.662,VALID,0.100563,VALID,24.5582,VALID,33,VALID,0.605469,
2011-05-25, 02:46:04,VALID,1002.52,VALID,0,INVALID,163.708,VALID,0,VALID,24.5388,VALID,32,VALID,0.916797,
2011-05-25, 02:47:04,VALID,1002.51,VALID,0,INVALID,163.701,VALID,0,VALID,24.5582,VALID,31,VALID,0.614062,
2011-05-25, 02:48:04,VALID,1002.51,VALID,0,INVALID,163.716,VALID,0,VALID,24.5582,VALID,30,VALID,0.436328,
2011-05-25, 02:49:04,VALID,1002.53,VALID,0,INVALID,163.708,VALID,0.100563,VALID,24.5388,VALID,29,VALID,0.589453,
2011-05-25, 02:50:04,VALID,1002.52,VALID,0,INVALID,163.693,VALID,0,VALID,24.5388,VALID,26,VALID,0.586328,
2011-05-25, 02:51:04,VALID,1002.53,VALID,0,INVALID,163.731,VALID,0,VALID,24.5388,VALID,28,VALID,0.516797,
2011-05-25, 02:52:04,VALID,1002.5,VALID,0,INVALID,163.723,VALID,0.100563,VALID,24.498,VALID,29,VALID,0.603125,
2011-05-25, 02:53:04,VALID,1002.51,VALID,0,INVALID,163.701,VALID,0,VALID,24.459,VALID,37,VALID,0.486328,
2011-05-25, 02:54:04,VALID,1002.51,VALID,0,INVALID,163.701,VALID,0.100563,VALID,24.4785,VALID,45,VALID,0.573047,
2011-05-25, 02:55:04,VALID,1002.52,VALID,0,INVALID,163.708,VALID,0,VALID,24.4804,VALID,58,VALID,0.378125,
2011-05-25, 02:56:04,VALID,1002.51,VALID,0,INVALID,163.708,VALID,0,VALID,24.4804,VALID,29,VALID,0.705078,
2011-05-25, 02:57:04,VALID,1002.49,VALID,0,INVALID,163.716,VALID,0,VALID,24.4998,VALID,44,VALID,1.0707,
2011-05-25, 02:58:04,VALID,1002.49,VALID,0,INVALID,163.716,VALID,0,VALID,24.5582,VALID,42,VALID,0.685156,
2011-05-25, 02:59:04,VALID,1002.49,VALID,0,INVALID,163.693,VALID,0,VALID,24.6185,VALID,75,VALID,0.753125,
2011-05-25, 03:00:04,VALID,1002.51,VALID,0,INVALID,163.716,VALID,0,VALID,24.6574,VALID,77,VALID,0.75,
2011-05-25, 03:01:04,VALID,1002.5,VALID,0,INVALID,163.685,VALID,0,VALID,24.6964,VALID,77,VALID,0.592969,
2011-05-25, 03:02:04,VALID,1002.49,VALID,0,INVALID,163.693,VALID,0,VALID,24.7159,VALID,65,VALID,0.163281,
2011-05-25, 03:03:04,VALID,1002.48,VALID,0,INVALID,163.67,VALID,0,VALID,24.7159,VALID,65,VALID,0.258594,
2011-05-25, 03:04:04,VALID,1002.47,VALID,0,INVALID,163.716,VALID,0,VALID,24.6769,VALID,43,VALID,0.434375,
2011-05-25, 03:05:04,VALID,1002.46,VALID,0,INVALID,163.678,VALID,0,VALID,24.6574,VALID,43,VALID,0.287109,
2011-05-25, 03:06:04,VALID,1002.48,VALID,0,INVALID,163.685,VALID,0,VALID,24.6361,VALID,43,VALID,0.298047,
2011-05-25, 03:07:04,VALID,1002.48,VALID,0,INVALID,163.723,VALID,0,VALID,24.6593,VALID,36,VALID,0.252734,
2011-05-25, 03:08:04,VALID,1002.45,VALID,0,INVALID,163.708,VALID,0,VALID,24.638,VALID,26,VALID,0.544531,
2011-05-25, 03:09:04,VALID,1002.46,VALID,0,INVALID,163.708,VALID,0,VALID,24.6964,VALID,64,VALID,0.65625,
2011-05-25, 03:10:04,VALID,1002.49,VALID,0,INVALID,163.701,VALID,0,VALID,24.714,VALID,105,VALID,0.354688,
2011-05-25, 03:11:04,VALID,1002.47,VALID,0,INVALID,163.685,VALID,0,VALID,24.7353,VALID,105,VALID,0.369141,
2011-05-25, 03:12:04,VALID,1002.47,VALID,0,INVALID,163.701,VALID,0,VALID,24.7353,VALID,105,VALID,0.189453,
2011-05-25, 03:13:04,VALID,1002.48,VALID,0,INVALID,163.685,VALID,0,VALID,24.6964,VALID,105,VALID,0.333203,
2011-05-25, 03:14:04,VALID,1002.49,VALID,0,INVALID,163.693,VALID,0,VALID,24.638,VALID,105,VALID,0.164063,
2011-05-25, 03:15:04,VALID,1002.5,VALID,0,INVALID,163.693,VALID,0,VALID,24.6185,VALID,105,VALID,0.261328,
2011-05-25, 03:16:04,VALID,1002.47,VALID,0,INVALID,163.701,VALID,0,VALID,24.5582,VALID,105,VALID,0.251172,
2011-05-25, 03:17:04,VALID,1002.49,VALID,0,INVALID,163.716,VALID,0,VALID,24.4998,VALID,105,VALID,0.0269531,
2011-05-25, 03:18:04,VALID,1002.52,VALID,0,INVALID,163.685,VALID,0,VALID,24.4822,VALID,105,VALID,0.0355469,
2011-05-25, 03:19:04,VALID,1002.51,VALID,0,INVALID,163.716,VALID,0,VALID,24.4433,VALID,71,VALID,0.334766,
2011-05-25, 03:20:04,VALID,1002.54,VALID,0,INVALID,163.708,VALID,0,VALID,24.4433,VALID,46,VALID,0.582031,
2011-05-25, 03:21:04,VALID,1002.57,VALID,0,INVALID,163.685,VALID,0,VALID,24.422,VALID,46,VALID,0.200391,
2011-05-25, 03:22:04,VALID,1002.56,VALID,0,INVALID,163.701,VALID,0,VALID,24.4238,VALID,46,VALID,0.0792969,
2011-05-25, 03:23:04,VALID,1002.58,VALID,0,INVALID,163.723,VALID,0,VALID,24.4043,VALID,46,VALID,0.00859375,
2011-05-25, 03:24:04,VALID,1002.61,VALID,0,INVALID,163.716,VALID,0,VALID,24.3849,VALID,46,VALID,0.0785156,
2011-05-25, 03:25:04,VALID,1002.59,VALID,0,INVALID,163.693,VALID,0,VALID,24.3441,VALID,46,VALID,0.0429688,
2011-05-25, 03:26:04,VALID,1002.63,VALID,0,INVALID,163.723,VALID,0,VALID,24.3636,VALID,46,VALID,0.2125,
2011-05-25, 03:27:04,VALID,1002.63,VALID,0,INVALID,163.716,VALID,0,VALID,24.3654,VALID,46,VALID,0,
2011-05-25, 03:28:04,VALID,1002.65,VALID,0,INVALID,163.723,VALID,0,VALID,24.3654,VALID,46,VALID,0.0703125,
2011-05-25, 03:29:04,VALID,1002.66,VALID,0,INVALID,163.731,VALID,0,VALID,24.3459,VALID,46,VALID,0,
2011-05-25, 03:30:04,VALID,1002.65,VALID,0,INVALID,163.723,VALID,0,VALID,24.307,VALID,46,VALID,0,
2011-05-25, 03:31:04,VALID,1002.68,VALID,0,INVALID,163.723,VALID,0,VALID,24.2875,VALID,46,VALID,0,
2011-05-25, 03:32:04,VALID,1002.67,VALID,0,INVALID,163.723,VALID,0,VALID,24.2681,VALID,46,VALID,0,
2011-05-25, 03:33:04,VALID,1002.67,VALID,0,INVALID,163.731,VALID,0,VALID,24.2291,VALID,46,VALID,0,
2011-05-25, 03:34:04,VALID,1002.67,VALID,0,INVALID,163.746,VALID,0,VALID,24.2291,VALID,46,VALID,0,
2011-05-25, 03:35:04,VALID,1002.68,VALID,0,INVALID,163.739,VALID,0,VALID,24.2097,VALID,46,VALID,0,
2011-05-25, 03:36:04,VALID,1002.7,VALID,0,INVALID,163.723,VALID,0,VALID,24.1707,VALID,46,VALID,0,
2011-05-25, 03:37:04,VALID,1002.7,VALID,0,INVALID,163.731,VALID,0,VALID,24.1707,VALID,46,VALID,0.1,
2011-05-25, 03:38:04,VALID,1002.72,VALID,0,INVALID,163.754,VALID,0,VALID,24.1707,VALID,46,VALID,0.0402344,
2011-05-25, 03:39:04,VALID,1002.72,VALID,0,INVALID,163.731,VALID,0,VALID,24.1318,VALID,46,VALID,0,
2011-05-25, 03:40:04,VALID,1002.71,VALID,0,INVALID,163.754,VALID,0,VALID,24.1123,VALID,46,VALID,0,
2011-05-25, 03:41:04,VALID,1002.7,VALID,0,INVALID,163.762,VALID,0,VALID,24.0929,VALID,46,VALID,0,